When you browse on this site, cookies collect data to enhance your experience and personalize the content and advertising you see.
Visit our Privacy Policy to learn more. By continuing to use the site, you agree to this use of cookies and data.
  • In Denmark
  • List of Countries
  • For 7 days
  • Water Temperature
  • Weather Map
  • Weather Widgets
  • user-avatar
    Login

    Hourly Weather Lowech

    Today, 29 February, Saturday

    Time Temperature Precipitation Wind Pressure Humidity
    00:00 +1°C° 0.2 mm 6 mps 732 mmHg 80%
    01:00 +1°C° 0.2 mm 6 mps 733 mmHg 82%
    02:00 -1°C° 0 mm 7 mps 733 mmHg 86%
    03:00 -1°C° 0.3 mm 7 mps 733 mmHg 85%
    04:00 -1°C° 0.3 mm 7 mps 734 mmHg 84%
    05:00 -2°C° 0.3 mm 7 mps 734 mmHg 83%
    06:00 -2°C° 0.2 mm 6 mps 735 mmHg 82%
    07:00 -1°C° 0.2 mm 5 mps 736 mmHg 81%
    08:00 -1°C° 0.2 mm 5 mps 736 mmHg 79%
    09:00 0°C° 0 mm 5 mps 737 mmHg 75%
    10:00 +1°C° 0 mm 4 mps 737 mmHg 71%
    11:00 +4°C° 0 mm 4 mps 738 mmHg 66%
    12:00 +5°C° 0 mm 4 mps 738 mmHg 63%
    13:00 +5°C° 0 mm 4 mps 738 mmHg 59%
    14:00 +7°C° 0 mm 3 mps 738 mmHg 55%
    15:00 +7°C° 0 mm 2 mps 738 mmHg 54%
    16:00 +7°C° 0 mm 2 mps 738 mmHg 53%
    17:00 +8°C° 0 mm 1 mps 738 mmHg 53%
    18:00 +7°C° 0 mm 1 mps 738 mmHg 57%
    19:00 +6°C° 0 mm 1 mps 738 mmHg 61%
    20:00 +5°C° 0 mm 1 mps 738 mmHg 66%
    21:00 +4°C° 0 mm 2 mps 738 mmHg 67%
    22:00 +3°C° 0 mm 2 mps 738 mmHg 69%
    23:00 +3°C° 0 mm 2 mps 738 mmHg 71%

    Tomorrow, 1 March, Sunday

    Time Temperature Precipitation Wind Pressure Humidity
    00:00 +3°C° 0 mm 2 mps 738 mmHg 72%
    01:00 +3°C° 0 mm 2 mps 738 mmHg 72%
    02:00 +3°C° 0 mm 2 mps 738 mmHg 73%
    03:00 +3°C° 0 mm 2 mps 737 mmHg 73%
    04:00 +3°C° 0 mm 2 mps 737 mmHg 73%
    05:00 +4°C° 0 mm 1 mps 737 mmHg 72%
    06:00 +4°C° 0 mm 1 mps 737 mmHg 72%
    07:00 +4°C° 0 mm 1 mps 737 mmHg 71%
    08:00 +5°C° 0 mm 1 mps 737 mmHg 70%
    09:00 +7°C° 0 mm 1 mps 737 mmHg 63%
    10:00 +9°C° 0 mm 1 mps 737 mmHg 57%
    11:00 +10°C° 0 mm 1 mps 737 mmHg 50%
    12:00 +12°C° 0 mm 1 mps 736 mmHg 48%
    13:00 +13°C° 0 mm 1 mps 736 mmHg 45%
    14:00 +14°C° 0 mm 1 mps 736 mmHg 43%
    15:00 +13°C° 0 mm 1 mps 735 mmHg 46%
    16:00 +13°C° 0 mm 1 mps 735 mmHg 49%
    17:00 +13°C° 0 mm 1 mps 734 mmHg 52%
    18:00 +11°C° 0 mm 1 mps 734 mmHg 56%
    19:00 +10°C° 0 mm 1 mps 735 mmHg 60%
    20:00 +7°C° 0 mm 2 mps 735 mmHg 64%
    21:00 +7°C° 0 mm 2 mps 735 mmHg 65%
    22:00 +7°C° 0 mm 2 mps 735 mmHg 66%
    23:00 +6°C° 0 mm 2 mps 735 mmHg 67%

    Day after tomorrow, 2 March, Monday

    Time Temperature Precipitation Wind Pressure Humidity
    00:00 +6°C° 0 mm 2 mps 734 mmHg 67%
    01:00 +7°C° 0 mm 1 mps 734 mmHg 68%
    02:00 +7°C° 0 mm 1 mps 733 mmHg 68%
    03:00 +6°C° 0 mm 2 mps 733 mmHg 67%
    04:00 +6°C° 0 mm 2 mps 733 mmHg 67%
    05:00 +6°C° 0 mm 2 mps 732 mmHg 66%
    06:00 +7°C° 0 mm 2 mps 732 mmHg 66%
    07:00 +7°C° 0 mm 2 mps 732 mmHg 65%
    08:00 +8°C° 0 mm 2 mps 732 mmHg 64%
    09:00 +10°C° 0 mm 2 mps 732 mmHg 59%
    10:00 +13°C° 0 mm 2 mps 732 mmHg 53%
    11:00 +16°C° 0 mm 2 mps 732 mmHg 48%
    12:00 +17°C° 0 mm 3 mps 732 mmHg 47%
    13:00 +18°C° 0 mm 3 mps 732 mmHg 46%
    14:00 +19°C° 0 mm 4 mps 731 mmHg 45%
    15:00 +18°C° 0 mm 3 mps 731 mmHg 49%
    16:00 +17°C° 0 mm 3 mps 731 mmHg 53%
    17:00 +17°C° 0 mm 2 mps 731 mmHg 57%
    18:00 +15°C° 0.1 mm 2 mps 731 mmHg 61%
    19:00 +14°C° 0.1 mm 2 mps 731 mmHg 65%
    20:00 +12°C° 0.1 mm 1 mps 732 mmHg 69%
    21:00 +12°C° 0 mm 2 mps 732 mmHg 69%
    22:00 +12°C° 0 mm 2 mps 732 mmHg 70%
    23:00 +10°C° 0 mm 2 mps 732 mmHg 70%

    3 March, Tuesday

    Time Temperature Precipitation Wind Pressure Humidity
    00:00 +10°C° 0 mm 2 mps 732 mmHg 70%
    01:00 +10°C° 0 mm 2 mps 732 mmHg 70%
    02:00 +10°C° 0 mm 2 mps 732 mmHg 70%
    03:00 +10°C° 0 mm 2 mps 731 mmHg 70%
    04:00 +10°C° 0 mm 2 mps 730 mmHg 70%
    05:00 +10°C° 0 mm 2 mps 730 mmHg 70%
    06:00 +10°C° 0 mm 3 mps 730 mmHg 70%
    07:00 +11°C° 0 mm 3 mps 730 mmHg 69%
    08:00 +11°C° 0 mm 3 mps 729 mmHg 69%
    09:00 +12°C° 0 mm 3 mps 729 mmHg 65%
    10:00 +14°C° 0 mm 4 mps 729 mmHg 60%
    11:00 +17°C° 0 mm 4 mps 729 mmHg 56%
    12:00 +18°C° 0 mm 4 mps 728 mmHg 51%
    13:00 +19°C° 0 mm 5 mps 728 mmHg 47%
    14:00 +20°C° 0 mm 5 mps 727 mmHg 42%
    15:00 +20°C° 0 mm 5 mps 727 mmHg 44%
    16:00 +19°C° 0 mm 5 mps 726 mmHg 45%
    17:00 +17°C° 0 mm 5 mps 726 mmHg 47%
    18:00 +16°C° 0 mm 5 mps 725 mmHg 52%
    19:00 +15°C° 0 mm 5 mps 725 mmHg 56%
    20:00 +14°C° 0 mm 4 mps 725 mmHg 60%
    21:00 +13°C° 0 mm 4 mps 725 mmHg 63%
    22:00 +13°C° 0 mm 4 mps 724 mmHg 66%
    23:00 +12°C° 0 mm 3 mps 724 mmHg 69%

    4 March, Wednesday

    Time Temperature Precipitation Wind Pressure Humidity
    00:00 +12°C° 0 mm 3 mps 724 mmHg 71%
    01:00 +12°C° 0 mm 2 mps 724 mmHg 73%
    02:00 +12°C° 0 mm 1 mps 724 mmHg 75%
    03:00 +10°C° 0.7 mm 2 mps 724 mmHg 80%
    04:00 +10°C° 0.7 mm 2 mps 724 mmHg 86%
    05:00 +9°C° 0.7 mm 2 mps 724 mmHg 91%
    06:00 +9°C° 1.7 mm 3 mps 724 mmHg 90%
    07:00 +7°C° 1.7 mm 4 mps 724 mmHg 89%
    08:00 +6°C° 1.7 mm 5 mps 725 mmHg 88%
    09:00 +7°C° 0.2 mm 4 mps 725 mmHg 84%
    10:00 +7°C° 0.2 mm 4 mps 725 mmHg 79%
    11:00 +7°C° 0.2 mm 4 mps 726 mmHg 75%
    12:00 +8°C° 0.1 mm 4 mps 726 mmHg 73%
    13:00 +8°C° 0.1 mm 4 mps 726 mmHg 71%
    14:00 +8°C° 0.1 mm 4 mps 726 mmHg 69%
    15:00 +8°C° 0.7 mm 4 mps 726 mmHg 72%
    16:00 +8°C° 0.7 mm 3 mps 727 mmHg 74%
    17:00 +7°C° 0.7 mm 3 mps 727 mmHg 77%
    18:00 +7°C° 0 mm 3 mps 727 mmHg 77%
    19:00 +6°C° 0 mm 2 mps 728 mmHg 77%
    20:00 +6°C° 0 mm 2 mps 729 mmHg 77%
    21:00 +6°C° 0 mm 2 mps 729 mmHg 76%
    22:00 +5°C° 0 mm 2 mps 729 mmHg 75%
    23:00 +5°C° 0 mm 2 mps 730 mmHg 74%

    5 March, Thursday

    Time Temperature Precipitation Wind Pressure Humidity
    00:00 +4°C° 0 mm 3 mps 730 mmHg 73%
    01:00 +4°C° 0 mm 3 mps 730 mmHg 73%
    02:00 +4°C° 0 mm 3 mps 730 mmHg 72%
    03:00 +3°C° 0 mm 3 mps 730 mmHg 73%
    04:00 +3°C° 0 mm 3 mps 730 mmHg 74%
    05:00 +3°C° 0 mm 3 mps 731 mmHg 75%
    06:00 +3°C° 0 mm 3 mps 731 mmHg 73%
    07:00 +3°C° 0 mm 3 mps 731 mmHg 72%
    08:00 +3°C° 0 mm 3 mps 731 mmHg 70%
    09:00 +4°C° 0 mm 4 mps 731 mmHg 65%
    10:00 +5°C° 0 mm 4 mps 731 mmHg 59%
    11:00 +7°C° 0 mm 4 mps 731 mmHg 53%
    12:00 +7°C° 0 mm 4 mps 731 mmHg 51%
    13:00 +8°C° 0 mm 4 mps 731 mmHg 49%
    14:00 +8°C° 0 mm 4 mps 731 mmHg 46%
    15:00 +8°C° 0 mm 4 mps 731 mmHg 47%
    16:00 +9°C° 0 mm 3 mps 731 mmHg 48%
    17:00 +9°C° 0 mm 3 mps 731 mmHg 48%
    18:00 +8°C° 0 mm 2 mps 731 mmHg 52%
    19:00 +7°C° 0 mm 2 mps 731 mmHg 56%
    20:00 +7°C° 0 mm 1 mps 732 mmHg 61%
    21:00 +6°C° 0 mm 1 mps 732 mmHg 61%
    22:00 +6°C° 0 mm 1 mps 732 mmHg 62%
    23:00 +6°C° 0 mm 1 mps 732 mmHg 63%
    Show more